Hourly Data Report for October 31, 2013

All times are specified in Local Standard Time (LST). Add 1 hour to adjust for Daylight Saving Time where and when it is observed.

FREDERICTON
NEW BRUNSWICK

45°52'08.000" N
66°32'14.000" W
20.70 m
8101505
71700
YFC

Download Data

Hourly Data (October 2013)
Hourly Data Report for October 31, 2013
Temp Definition
°C
Dew Point Temp Definition
°C
Rel Hum Definition
%
Wind Dir Definition
10's deg

Wind Spd Definition
km/h
Visibility Definition
km
Stn Press Definition
kPa
Hmdx Definition


Wind Chill Definition


Weather Definition


TIME
00:00 Legend Double Dagger -2.1 -6.3 73 24 4 16.1 101.87   -4 LegendNANA
01:00 Legend Double Dagger -3.6 -5.9 84 18 8 16.1 101.95   -7 LegendNANA
02:00 Legend Double Dagger -3.6 -6.7 79 25 5 16.1 102.00   -6 LegendNANA
03:00 Legend Double Dagger -4.9 -6.3 90 21 8 16.1 102.03   -8 LegendNANA
04:00 Legend Double Dagger -4.2 -5.9 88 18 9 16.1 102.03   -8 LegendNANA
05:00 Legend Double Dagger -4.5 -5.8 91 21 5 16.1 102.03   -7 LegendNANA
06:00 Legend Double Dagger -5.0 -6.1 92 20 8 16.1 102.05   -9 LegendNANA
07:00 Legend Double Dagger -4.8 -5.9 92 21 9 16.1 102.04   -9 LegendNANA
08:00 Legend Double Dagger -4.4 -5.5 92   0 16.1 102.07     LegendNANA
09:00 Legend Double Dagger -0.6 -3.4 81 20 13 16.1 102.12   -5 LegendNANA
10:00 Legend Double Dagger 1.7 -2.6 73 21 8 16.1 102.06     LegendNANA
11:00 Legend Double Dagger 3.9 -1.7 67 18 11 16.1 102.04     LegendNANA
12:00 Legend Double Dagger 6.3 -2.4 54 21 21 16.1 101.97     LegendNANA
13:00 Legend Double Dagger 6.8 -3.2 49 21 22 16.1 101.84     LegendNANA
14:00 Legend Double Dagger 6.9 -1.7 54 20 26 16.1 101.72     LegendNANA
15:00 Legend Double Dagger 7.2 -1.4 54 20 18 16.1 101.69     LegendNANA
16:00 Legend Double Dagger 7.2 -0.1 60 18 13 16.1 101.57     LegendNANA
17:00 Legend Double Dagger 7.4 1.9 68 18 13 16.1 101.45     LegendNANA
18:00 Legend Double Dagger 7.3 3.8 78 18 11 16.1 101.35     LegendNANA
19:00 Legend Double Dagger 6.7 5.5 92 16 13 12.9 101.24     LegendNANA
20:00 Legend Double Dagger 7.9 7.2 95 16 18 8.1 101.03     LegendNANA
21:00 Legend Double Dagger 9.2 8.5 95 17 24 9.7 100.85     LegendNANA
22:00 Legend Double Dagger 10.3 9.5 95 18 24 8.1 100.72     LegendNANA
23:00 Legend Double Dagger 11.0 10.4 96 19 17 16.1 100.63     LegendNANA

Notes on Data Quality.

Legend

  • E = Estimated
  • M = Missing
  • NA = Not Available
  • ‡ = Partner data that is not subject to review by the National Climate Archives
Date modified: